User: anonymous   Login
Location: Home
(42.5358°N, 72.7383°W)
Time: 15:36:03
(UTC-05:00)
Language:

BEESAT 2 - Orbit

View from above orbital plane
View from above orbital plane
View from above satellite
View from above satellite

Ground track
Ground track

The orbit data is extracted from the following two-line orbital elements,

1 39136U 13015G   22019.54781184  .00006463  00000-0  30669-3 0  9990
2 39136  64.8739 229.2001 0011565 258.2541 101.7289 15.20051075483269
Epoch (UTC): 19 January 2022 13:08:50
Eccentricity: 0.0011565
inclination: 64.8739°
perigee height: 498 km
apogee height: 513 km
right ascension of ascending node: 229.2001°
argument of perigee: 258.2541°
revolutions per day: 15.20051075
mean anomaly at epoch: 101.7289°
orbit number at epoch: 48326

The dashed part of the orbit path shows where the satellite is in the earth's shadow,  

DLR